Prescott, AZ

8:30 PM MST on August 31, 2016 (GMT -0700)
Love

Weather History for KPRC - January, 2012

Change the Weather History Date:

Thursday, January 19, 2012

  Actual Average Record
Temperature  
Mean Temperature 44 °F 39 °F  
Max Temperature 63 °F 52 °F 71 °F (1971)
Min Temperature 26 °F 26 °F 13 °F (1990)
Degree Days  
Heating Degree Days 20    
Month to date heating degree days  
Since 1 July heating degree days  
Cooling Degree Days 0    
Month to date cooling degree days  
Year to date cooling degree days  
Moisture  
Dew Point 16 °F    
Average Humidity 40    
Maximum Humidity 69    
Minimum Humidity 11    
Precipitation  
Precipitation 0.00 in 0.03 in 0.55 in (2010)
Month to date precipitation 0.72  
Year to date precipitation 0.72  
Sea Level Pressure  
Sea Level Pressure 30.06 in    
Wind  
Wind Speed 5 mph (SSW)    
Max Wind Speed 13 mph    
Max Gust Speed -    
Visibility 10 miles    
Events      
T = Trace of Precipitation, MM = Missing Value Source: NWS Daily Summary

Daily Weather History Graph

Daily Weather History Graph

Search for Another Location

Airport or City:

Trip Planner

Search our weather history database for the weather conditions in past years. The results will help you decide how hot, cold, wet, or windy it might be!

Date:

Astronomy

Jan. 19, 2012 Rise Set
Actual Time 7:35 AM MST 5:45 PM MST
Civil Twilight 7:08 AM MST 6:12 PM MST
Nautical Twilight 6:37 AM MST 6:43 PM MST
Astronomical Twilight 6:07 AM MST 7:13 PM MST
Moon 4:13 AM MST (1/19) 2:24 PM MST (1/19)
Length of Visible Light 11h 04m
Length of Day
10h 10m
Waning Crescent, 15% of the Moon is Illuminated
Jan 19
Waning Crescent
Jan 23
New
Jan 30
First Quarter
Feb 7
Full
Feb 14
Last Quarter

Hourly Weather History & Observations

Time (MST) Temp. Windchill Dew Point Humidity Pressure Visibility Wind Dir Wind Speed Gust Speed Precip Events Conditions
12:53 AM 30.9 °F 23.5 °F 17.1 °F 57% 30.14 in 10.0 mi SSW 8.1 mph - N/A   Clear
1:53 AM 30.0 °F - 17.1 °F 59% 30.13 in 10.0 mi Calm Calm - N/A   Clear
2:53 AM 30.9 °F 24.3 °F 17.1 °F 57% 30.12 in 10.0 mi South 6.9 mph - N/A   Clear
3:53 AM 28.9 °F 25.2 °F 18.0 °F 64% 30.10 in 10.0 mi SW 3.5 mph - N/A   Clear
4:53 AM 27.0 °F - 17.1 °F 66% 30.11 in 10.0 mi Calm Calm - N/A   Clear
5:53 AM 28.0 °F 24.2 °F 18.0 °F 66% 30.12 in 10.0 mi SSW 3.5 mph - N/A   Clear
6:53 AM 26.1 °F - 17.1 °F 69% 30.16 in 10.0 mi Calm Calm - N/A   Clear
7:53 AM 28.0 °F 21.7 °F 18.0 °F 66% 30.15 in 10.0 mi SSW 5.8 mph - N/A   Clear
8:53 AM 35.1 °F - 19.9 °F 54% 30.14 in 10.0 mi Calm Calm - N/A   Clear
9:53 AM 43.0 °F - 21.0 °F 42% 30.14 in 10.0 mi Calm Calm - N/A   Clear
10:53 AM 48.2 °F - 21.2 °F 34% 30.17 in 10.0 mi Calm Calm - N/A   Clear
11:53 AM 54.0 °F - 19.0 °F 25% 30.06 in 10.0 mi Variable 3.5 mph - N/A   Clear
12:53 PM 57.9 °F - 18.0 °F 21% 30.01 in 10.0 mi Calm Calm - N/A   Clear
1:53 PM 61.0 °F - 15.1 °F 17% 29.96 in 10.0 mi Variable 3.5 mph - N/A   Clear
2:53 PM 63.0 °F - 6.1 °F 11% 29.94 in 10.0 mi WSW 12.7 mph - N/A   Clear
3:53 PM 61.0 °F - 9.0 °F 13% 29.95 in 10.0 mi WSW 10.4 mph - N/A   Clear
4:53 PM 57.0 °F - 7.0 °F 14% 29.98 in 10.0 mi WSW 10.4 mph - N/A   Clear
5:53 PM 50.0 °F - 14.0 °F 24% 30.04 in 10.0 mi SW 8.1 mph - N/A   Clear
6:53 PM 46.9 °F - 15.1 °F 28% 30.01 in 10.0 mi South 5.8 mph - N/A   Clear
7:53 PM 44.6 °F 39.7 °F 19.4 °F 37% 30.05 in 10.0 mi SE 9.2 mph - N/A   Clear
8:53 PM 39.9 °F 37.8 °F 17.1 °F 40% 30.01 in 10.0 mi South 3.5 mph - N/A   Clear
9:53 PM 36.0 °F 29.6 °F 17.1 °F 46% 29.99 in 10.0 mi South 8.1 mph - N/A   Clear
10:53 PM 39.0 °F 34.8 °F 12.9 °F 34% 29.97 in 10.0 mi Variable 5.8 mph - N/A   Clear
11:53 PM 46.0 °F 42.5 °F 7.0 °F 20% 29.94 in 10.0 mi South 6.9 mph - N/A   Clear